[[{"header":{"parameterUnit":"m.s-1","parameterCategory":1,"la1":30.2991,"la2":30.254,"lo1":-89.0895,"lo2":-89.0444,"dy":0.0017,"dx":0.0017,"nx":28,"ny":28,"refTime":"2023-04-26T21:00:00:Z","depth":0,"parameterNumber":2,"parameterNumberName":"U-component_of_WINDS"},"data":[0,0,0,0,0,0,0,0,0,0,0,0,0,0,0,0,0,0,0,0,0,0,0,0,0,0,0,0,0,0,0,0,0,0,0,0,0,0,0,0,0,0,0,0,0,0,0,0,0,0,0,0,0,0,0,0,0,0,1.536,1.536,0,1.5328,1.5327,1.5327,1.526,1.5258,1.5257,1.5256,1.5224,1.5224,1.5224,0,0,0,0,0,0,0,0,0,0,0,0,0,1.5368,1.5368,1.536,1.536,1.5359,1.5328,1.5327,1.5327,1.526,1.5258,1.5257,1.5255,1.5224,1.5224,1.5225,0,0,0,0,0,0,0,0,0,0,0,0,0,1.5353,1.5368,1.536,1.5322,1.5319,1.5328,1.5327,1.5327,1.526,1.5258,1.5256,1.5254,1.5223,1.5224,1.5225,1.5269,0,0,1.5226,1.5227,0,0,0,0,0,0,0,0,1.5354,1.5353,1.5328,1.5325,1.5321,1.5296,1.5318,1.5307,1.5261,1.5283,1.5256,1.5254,1.5249,1.5248,1.5246,1.5267,1.5266,1.5226,1.5227,1.5227,1.5227,0,0,0,0,0,0,0,1.5355,1.5354,1.5347,1.5328,1.5323,1.5308,1.5304,1.5316,1.5278,1.528,1.5276,1.5273,1.5247,1.5246,1.5245,1.5265,1.5226,1.5227,1.5227,1.5228,1.5326,1.5328,0,0,0,0,0,0,1.5361,1.5355,1.5348,1.5346,1.5333,1.5309,1.5305,1.5306,1.5277,1.5271,1.5274,1.527,1.5246,1.5244,1.5243,1.5297,1.5227,1.5228,1.5228,1.5323,1.5326,1.5329,0,0,0,0,0,0,1.5362,1.5361,1.535,1.5349,1.5347,1.5311,1.5313,1.5306,1.5305,1.5273,1.5266,1.528,1.5244,1.5243,1.5264,1.5295,1.5228,1.5228,1.5321,1.5324,1.5327,1.5402,0,0,0,0,0,0,1.5362,1.5362,1.5377,1.535,1.5347,1.537,1.5315,1.5307,1.5306,1.5299,1.5276,1.527,1.5242,1.5263,1.5265,1.5294,1.5229,1.5318,1.5322,1.5326,1.5396,1.5407,1.5416,0,0,0,0,0,1.5363,1.5399,1.5378,1.5378,1.5365,1.5372,1.537,1.5337,1.5309,1.5325,1.5305,1.5271,1.5291,1.5266,1.5267,1.5297,1.5316,1.5321,1.5326,1.5392,1.5405,1.5416,0,0,0,0,0,0,1.5429,1.5394,1.5371,1.5399,1.5389,1.536,1.538,1.5351,1.5349,1.5343,1.5302,1.5297,1.5325,1.5312,1.5286,1.5341,1.5298,1.5304,1.5348,1.536,1.537,1.5374,1.5229,0,0,0,0,0,1.5448,1.5455,1.5424,1.5452,1.5448,1.5415,1.5416,1.5392,1.538,1.5375,1.5356,1.5346,1.5351,1.5354,1.5356,1.5394,1.539,1.5415,1.5425,1.5433,1.544,1.5463,1.5475,1.5345,1.5345,1.5345,0,0,1.5485,1.5467,1.5473,1.5465,1.5454,1.5465,1.5412,1.5423,1.5432,1.5377,1.5397,1.5383,1.5369,1.54,1.5413,1.5391,1.5474,1.544,1.5447,1.5448,1.5469,1.5482,1.5493,1.5349,1.5348,1.5348,0,0,1.5559,1.5544,1.5568,1.5559,1.5544,1.5522,1.5528,1.5504,1.5493,1.5512,1.5473,1.5482,1.5489,1.5482,1.548,1.5555,1.5526,1.5557,1.561,1.5633,1.5643,1.5652,1.5683,1.5694,1.5562,1.5562,1.5562,0,1.5608,1.5621,1.5584,1.56,1.5599,1.555,1.5576,1.5568,1.5555,1.5556,1.5531,1.5542,1.5529,1.556,1.5578,1.5576,1.5584,1.556,1.5645,1.5653,1.5661,1.569,1.5701,1.5566,1.5566,1.5566,1.5565,0,1.5683,1.5693,1.5714,1.5704,1.5705,1.5725,1.5693,1.5699,1.5675,1.5657,1.5679,1.5662,1.5662,1.5666,1.5642,1.5695,1.5683,1.5652,1.5609,1.5678,1.5705,1.5715,1.5572,1.5571,1.557,1.5569,0,0,1.5798,1.5769,1.5777,1.5774,1.5755,1.5763,1.5782,1.5782,1.579,1.5782,1.5799,1.5808,1.5781,1.5778,1.5753,1.5773,1.5839,1.574,1.5739,1.5762,1.5901,1.5927,1.594,1.5818,1.582,1.5822,1.5903,0,1.587,1.5902,1.5871,1.5909,1.592,1.5876,1.5893,1.5885,1.5869,1.5877,1.5859,1.5867,1.5828,1.5827,1.5845,1.5827,1.5867,1.582,1.5837,1.5838,1.5845,1.5953,1.5979,1.6057,1.5913,1.5915,1.5916,0,1.5958,1.5957,1.5997,1.5979,1.5983,1.5999,1.5999,1.6006,1.5996,1.5983,1.5982,1.5953,1.5973,1.593,1.5959,1.5928,1.5933,1.5926,1.5928,1.5931,1.5883,1.5962,1.6081,1.6094,1.5931,1.593,1.5929,0,1.6043,1.6051,1.6077,1.6074,1.6053,1.6067,1.6058,1.6047,1.605,1.605,1.6052,1.6054,1.6056,1.6059,1.6032,1.6002,1.6066,1.6019,1.6058,1.606,1.6076,1.6076,1.6201,1.6074,1.6073,1.6073,1.6073,0,1.6128,1.6156,1.6115,1.6132,1.6162,1.6127,1.6158,1.6145,1.6136,1.6151,1.6111,1.6126,1.6088,1.6099,1.6078,1.6108,1.6108,1.61,1.6095,1.6106,1.6107,1.611,1.6106,1.6076,1.6076,1.6075,1.6074,0,1.6229,1.6202,1.6229,1.6207,1.6203,1.6226,1.6209,1.6224,1.6206,1.6226,1.6228,1.6201,1.6212,1.6185,1.6192,1.6178,1.6222,1.6206,1.6226,1.6223,1.6265,1.6263,1.6399,1.6417,1.6275,1.6277,1.6278,0,1.6286,1.6307,1.6288,1.6296,1.629,1.6302,1.6306,1.6273,1.6279,1.6271,1.6289,1.6297,1.6303,1.6325,1.6306,1.6313,1.6299,1.6346,1.63,1.6311,1.6304,1.6305,1.6309,1.6357,1.6358,1.636,1.6361,0,1.6393,1.638,1.6387,1.6391,1.6397,1.6398,1.6396,1.6405,1.637,1.6379,1.6391,1.6396,1.6405,1.6415,1.6418,1.6411,1.6382,1.6375,1.6386,1.6399,1.6411,1.6409,1.6256,1.6373,1.6372,1.6371,1.637,1.637,1.6476,1.6494,1.6485,1.6496,1.6491,1.6492,1.6507,1.6492,1.6501,1.6507,1.6486,1.6504,1.6497,1.6498,1.6495,1.651,1.6488,1.6502,1.6506,1.6511,1.652,1.6406,1.6509,1.6509,1.6509,1.6508,1.6508,0,1.6584,1.6577,1.6587,1.6587,1.6597,1.6567,1.6565,1.6575,1.6592,1.6587,1.6595,1.6611,1.6622,1.6605,1.6613,1.6629,1.6616,1.6633,1.6633,1.6633,1.6536,1.6528,1.6643,1.6643,1.6643,1.6643,1.6643,1.6643,1.6642,1.6672,1.6659,1.6687,1.668,1.6698,1.67,1.6701,1.6698,1.6718,1.6728,1.6716,1.6708,1.6717,1.6726,1.6721,1.6728,1.675,1.6741,1.6652,1.6639,1.6626,1.6619,1.6751,1.6751,1.6837,1.6838,1.6838]},{"header":{"parameterUnit":"m.s-1","parameterCategory":1,"la1":30.2991,"la2":30.254,"lo1":-89.0895,"lo2":-89.0444,"dy":0.0017,"dx":0.0017,"nx":28,"ny":28,"refTime":"2023-04-26T21:00:00:Z","depth":0,"parameterNumber":3,"parameterNumberName":"V-component_of_WINDS"},"data":[0,0,0,0,0,0,0,0,0,0,0,0,0,0,0,0,0,0,0,0,0,0,0,0,0,0,0,0,0,0,0,0,0,0,0,0,0,0,0,0,0,0,0,0,0,0,0,0,0,0,0,0,0,0,0,0,0,0,3.92,3.9203,0,3.9489,3.9492,3.9496,3.9488,3.9484,3.9481,3.9477,3.9773,3.9785,3.9796,0,0,0,0,0,0,0,0,0,0,0,0,0,3.8644,3.8655,3.92,3.9203,3.9207,3.9489,3.9493,3.9496,3.9489,3.9484,3.9479,3.9475,3.977,3.9783,3.9797,0,0,0,0,0,0,0,0,0,0,0,0,0,3.8905,3.8658,3.9199,3.9237,3.9244,3.9488,3.9493,3.9498,3.949,3.9484,3.9478,3.9473,3.9765,3.9782,3.9799,4.0025,0,0,3.9852,3.986,0,0,0,0,0,0,0,0,3.889,3.8925,3.9228,3.9235,3.9243,3.9447,3.9406,3.9674,3.9492,3.9397,3.9477,3.947,3.967,3.9694,3.9762,4.0038,4.0051,3.9854,3.9864,3.9872,3.9877,0,0,0,0,0,0,0,3.8872,3.8913,3.9314,3.9232,3.9241,3.9241,3.9271,3.9456,3.9563,3.9404,3.9404,3.9439,3.9672,3.9745,3.9768,4.0056,3.9853,3.9869,3.9879,3.9886,4.0539,4.0545,0,0,0,0,0,0,3.8846,3.8898,3.9305,3.9323,3.9048,3.9256,3.929,3.9387,3.9561,3.9581,3.9444,3.9437,3.9718,3.9748,3.9779,4.006,3.9872,3.9888,3.9898,4.0532,4.054,4.0548,0,0,0,0,0,0,3.8834,3.8882,3.9293,3.9111,3.9163,3.9272,3.9381,3.9396,3.9469,3.959,3.9609,3.9498,3.9715,3.9754,3.9965,4.007,3.9896,3.9911,4.0524,4.0534,4.0544,4.062,0,0,0,0,0,0,3.8818,3.8878,3.8964,3.9113,3.9173,3.9474,3.9387,3.9406,3.9498,3.9493,3.9647,3.9666,3.9713,3.9939,3.9982,4.0091,3.9925,4.0515,4.0528,4.0541,4.0609,4.0631,4.0651,0,0,0,0,0,3.8798,3.8972,3.8968,3.9017,3.9282,3.948,3.9514,3.9565,3.9507,3.9595,3.9674,3.9661,4.005,3.9961,4.0009,4.0124,4.0509,4.0525,4.054,4.0599,4.0627,4.0651,0,0,0,0,0,0,3.8831,3.8992,3.8989,3.9217,3.9335,3.9478,3.9591,3.9592,3.9729,3.9718,3.9774,3.9809,4.0022,4.0093,3.999,4.0355,4.0272,4.0298,4.0301,4.0329,4.0349,4.033,3.9939,0,0,0,0,0,3.8865,3.9012,3.9144,3.9332,3.9392,3.9481,3.9569,3.9598,3.9723,3.9773,3.9867,3.9989,4.0139,4.0237,4.0381,4.0617,4.0654,4.0721,4.0742,4.0759,4.0782,4.0918,4.0951,4.0599,4.0599,4.0598,0,0,3.8937,3.9043,3.9132,3.9342,3.9437,3.959,3.9523,3.9686,3.9801,3.9797,4.0004,4.0077,4.0217,4.0443,4.0547,4.051,4.0887,4.0779,4.0791,4.0806,4.0938,4.0971,4.1001,4.0609,4.0607,4.0606,0,0,3.9146,3.9239,3.9409,3.9506,3.9652,3.9711,3.9751,3.9896,3.9946,4.0153,4.0156,4.0292,4.0548,4.065,4.0735,4.0988,4.0983,4.1033,4.1146,4.1278,4.1306,4.1331,4.1427,4.146,4.1055,4.1055,4.1055,0,3.9217,3.9447,3.9496,3.9662,3.9757,3.9761,3.9936,4.0027,4.0212,4.0278,4.0232,4.0558,4.0652,4.0905,4.0967,4.1033,4.1085,4.1018,4.1298,4.1323,4.1348,4.144,4.1475,4.106,4.106,4.1059,4.1059,0,3.953,3.969,3.9809,3.9991,4.0098,4.0266,4.0343,4.0446,4.0466,4.053,4.0745,4.0858,4.1028,4.1089,4.1109,4.1347,4.132,4.1285,4.1205,4.1386,4.1474,4.1509,4.1068,4.1066,4.1065,4.1063,0,0,3.977,3.9978,4.0022,4.0107,4.0269,4.0394,4.0564,4.0732,4.0822,4.0948,4.1096,4.1314,4.1285,4.1382,4.1413,4.1528,4.1729,4.1481,4.1485,4.1528,4.2004,4.2033,4.2073,4.1725,4.1731,4.1737,4.1995,0,4.0001,4.0305,4.0356,4.0623,4.0774,4.0781,4.0931,4.1047,4.1113,4.1251,4.1322,4.1479,4.1425,4.1485,4.1599,4.168,4.1826,4.1661,4.1866,4.1873,4.1836,4.2118,4.2148,4.2386,4.2028,4.2034,4.2038,0,4.0311,4.045,4.0733,4.088,4.0945,4.1079,4.1239,4.137,4.1504,4.1543,4.1653,4.1672,4.1852,4.176,4.2012,4.1899,4.1985,4.2038,4.2049,4.2074,4.197,4.2156,4.2462,4.25,4.2092,4.2087,4.2084,0,4.0465,4.0722,4.0927,4.0998,4.1172,4.1267,4.1344,4.1472,4.1571,4.1711,4.1777,4.1935,4.2023,4.2146,4.2208,4.2134,4.2457,4.2369,4.2499,4.2498,4.257,4.2565,4.29,4.2616,4.2616,4.2615,4.2614,0,4.0721,4.0896,4.0999,4.1125,4.1322,4.1379,4.1572,4.1647,4.1762,4.1904,4.1918,4.2052,4.2123,4.2268,4.2317,4.2521,4.2559,4.2599,4.2611,4.2601,4.2597,4.2662,4.2649,4.2625,4.2623,4.2621,4.2619,0,4.0928,4.1004,4.1229,4.1376,4.1418,4.1557,4.1684,4.1809,4.1873,4.2054,4.2099,4.2202,4.2373,4.2446,4.2656,4.2689,4.2925,4.2922,4.2881,4.2886,4.3014,4.3003,4.3407,4.3465,4.3137,4.314,4.3143,0,4.109,4.1225,4.1388,4.1486,4.1566,4.1721,4.1824,4.1885,4.1991,4.2156,4.2262,4.2433,4.2575,4.2849,4.2943,4.3105,4.3109,4.3239,4.3134,4.3121,4.3118,4.3112,4.3128,4.326,4.3263,4.3266,4.3268,0,4.137,4.1402,4.1548,4.1711,4.1833,4.1963,4.209,4.2169,4.225,4.2369,4.2546,4.2655,4.2872,4.3044,4.3212,4.3293,4.3297,4.33,4.334,4.3334,4.3307,4.3329,4.294,4.3292,4.3289,4.3287,4.3286,4.3285,4.1563,4.1686,4.1822,4.1987,4.2089,4.2209,4.2335,4.2416,4.2565,4.2747,4.2773,4.2963,4.3097,4.3324,4.3411,4.3562,4.353,4.3585,4.3601,4.3615,4.3626,4.3278,4.3592,4.3591,4.3591,4.359,4.359,0,4.1849,4.1938,4.2089,4.2268,4.2399,4.2389,4.253,4.2641,4.2809,4.2933,4.3073,4.3278,4.3446,4.3554,4.3724,4.3824,4.383,4.3867,4.3863,4.3883,4.3642,4.3594,4.386,4.386,4.386,4.386,4.3859,4.3859,4.2014,4.2223,4.2272,4.2533,4.262,4.2808,4.289,4.3002,4.3102,4.3331,4.3472,4.354,4.366,4.3839,4.3994,4.4021,4.4086,4.4126,4.4152,4.3927,4.3899,4.3872,4.3828,4.4138,4.4138,4.4381,4.4383,4.4385]}]]